Meath Environmental Platform

Observations for Trim Market St

Time AQI Temp °C Hum % Pres Pa CO μg/m³ H₂S μg/m³ NO μg/m³ NO₂ μg/m³ O₃ μg/m³ SO₂ μg/m³ PM1 μg/m³ PM2.5 μg/m³ PM10 μg/m³
Monday 17 August 2026
11:36 2 23.4 61 57,412 0 0 2.42 11.07 43.46 0 0 1.5 2.07
11:35 2 23.3 61 57,413 0.02 0 2.41 11.72 43.53 0 0 1.5 2.07
11:34 2 23.3 61 57,420 0.04 0 2.41 10.12 47.99 0 0 1.5 2.07
11:32 2 23.3 61 57,415 0.12 0 2.14 10.94 48.18 0 0 1.99 3.44
11:29 2 23.3 61 57,364 0.27 0 2.21 9.05 36.13 0 0 1.48 2.09
11:24 2 23.2 62 57,288 0.08 0 4.46 11.46 41.78 0 0 1.45 2.13
11:22 2 23.1 62 57,262 0.41 0 5.11 10.08 39.78 0 0 1.44 2.14
11:21 2 23.1 62 57,243 0.26 0 5.13 11.55 39.77 0 0 1.43 2.15
11:15 2 22.8 63 57,029 0 0 1.59 6.52 54.8 0 0 2.38 3.53
11:11 2 22.6 64 56,824 0.09 0 1.21 6.17 49.9 0 0 1.36 2.89
11:10 2 22.5 64 56,777 0.05 0 1.17 7.06 54.25 0 0 1.35 2.23
11:09 2 22.4 64 56,744 0.03 0 1.13 6.95 55.79 0 0 1.35 2.24
11:08 2 22.4 64 56,728 0.03 0 1.28 6.87 54.66 0 0 1.35 2.24
11:07 2 22.4 64 56,718 0.1 0 2.17 7.17 55.45 0 0 1.35 2.24
11:06 2 22.3 64 56,702 0.03 0 2.43 6.95 56 0 0 1.35 2.24
11:05 2 22.3 64 56,670 0.02 0 2.52 6.6 52.84 0 0 1.34 2.25
11:04 2 22.3 65 56,633 0.08 0 2.79 7.16 53.12 0 0 1.33 2.26
11:03 2 22.2 65 56,592 0.05 0 2.98 7.62 50.42 0 0 1.33 2.26
11:02 2 22.2 65 56,544 0.08 0 2.64 6.26 50.58 0 0 1.33 2.27
11:01 2 22.2 65 56,461 0.19 0 2.72 6.5 53.8 0 0 1.32 2.28